Regional Weather Roundup
Issued by NWS

Home | Current Version | Previous Version | Text Only | Print | Product List | Glossary On
Versions: 1 2 3 4 5 6 7 8 9 10 11 12 13 14 15 16 17 18 19 20 21 22 23 24 25 26 27 28 29 30 31 32 33 34 35 36 37 38 39 40 41 42 43 44 45 46 47 48 49 50
000
ASCA44 KEWX 271720
RWRMX

LATIN AMERICA AND CARIBBEAN REGIONAL WEATHER ROUNDUP
NATIONAL WEATHER SERVICE AUSTIN/SAN ANTONIO TX
1200 PM CDT WED MAY 27 2015

NOTE: "FAIR" INDICATED FEW OR NO CLOUDS BELOW 12,000 FEET WITH NO
SIGNIFICANT WEATHER AND/OR OBSTRUCTIONS TO VISIBILITY.

BAJA CALIFORNIA

CITY           SKY/WX    TMP DP  RH WIND       PRES   REMARKS
LORETO         SUNNY     81  68  65 NE9       29.87S
LA PAZ         SUNNY     84  41  21 S7        29.93F
MEXICALI       PTSUNNY   81  54  39 S2        29.88S
S.J. DEL CABO  MOSUNNY   93  43  17 CALM      29.92S
TIJUANA        CLOUDY    61  54  77 NW12      30.03S FOG

NORTHWESTERN MEXICO

CITY           SKY/WX    TMP DP  RH WIND       PRES   REMARKS
CULIACAN       SUNNY     90  48  24 CALM      29.92F
DURANGO        PTSUNNY   77  23  13 CALM      30.28F
GUAYMAS        SUNNY     86  54  32 CALM      29.87S
HERMOSILLO     MOSUNNY   86  43  22 SE5       29.94F
CD. JUAREZ     PTSUNNY   84  43  23 W5        30.04F
LOS MOCHIS     SUNNY     88  50  27 CALM      29.92F
OBREGON        SUNNY     88  28  11 SE5       29.89S

NORTHEASTERN MEXICO

CITY           SKY/WX    TMP DP  RH WIND       PRES   REMARKS
CHIHUAHUA      SUNNY     82  25  12 N6        30.13F
MATAMOROS      PTSUNNY   88  77  70 SE12      30.02R HX 100
MONCLOVA       PTSUNNY   82  73  74 CALM      30.00R
MONTERREY      CLOUDY    77  72  83 E6        30.00S
NUEVO LAREDO   PTSUNNY   86  72  62 S9        30.01R HX  92
PIEDRAS NEGRAS CLOUDY    82  75  78 SE9       30.03R FOG
REYNOSA        PTSUNNY   84  70  61 SE13      30.00S
SALTILLO       SUNNY     81  66  61 N12       30.20S
TORREON        SUNNY     86  55  35 CALM      30.09F
CD. VICTORIA   SUNNY     88  70  55 S17       29.97F HX  92

WESTERN MEXICO

CITY           SKY/WX    TMP DP  RH WIND       PRES   REMARKS
AGUASCALIENTES SUNNY     72  43  35 S9        30.31S
COLIMA         PTSUNNY   79  66  65 CALM      30.06F
DEL BAJIO      MOSUNNY   77  54  44 CALM      30.34F
GUADALAJARA    MOSUNNY   79  54  41 W6        30.22F
MANZANILLO     MOSUNNY   91  77  62 S9        29.91S HX 105
MAZATLAN       MOSUNNY   84  54  34 SE9       29.91S
P. VALLARTA    PTSUNNY   88  70  55 S5        29.93F HX  92
URUAPAN        MOSUNNY   73  61  64 S7        30.23S
ZACATECAS      MOSUNNY   75  45  33 S6        30.33S

CENTRAL MEXICO

CITY           SKY/WX    TMP DP  RH WIND       PRES   REMARKS
CUERNAVACA     MOSUNNY   79  55  44 SE6       30.18F
MEXICO CITY    SUNNY     72  54  53 VRB3      30.36S
MORELIA        MOSUNNY   72  57  60 CALM      30.29F
POZA RICA      PTSUNNY   88  77  70 NE5       29.98F HX 100
PUEBLA         MOSUNNY   72  50  46 SW8       30.37S
QUERETARO      MOSUNNY   72  55  56 E5        30.35F
S. LUIS POTOSI SUNNY     73  50  43 SE3       30.30S
TAMPICO        MOSUNNY   86  72  62 SE9       29.99F HX  92
TOLUCA         PTSUNNY   68  43  40 E5        30.44S

SOUTHERN MEXICO

CITY           SKY/WX    TMP DP  RH WIND       PRES   REMARKS
ACAPULCO       MOSUNNY   91  73  55 SE10      29.93R HX 100
B. DE HUATULCO CLOUDY    86  77  74 SE12      29.96S HX  97
OAXACA         PTSUNNY   73  59  60 CALM      30.27F
P. ESCONDIDO   PTSUNNY   84  75  74 S16       30.02S HX  92
VERACRUZ       MOSUNNY   91  75  59 NE8       29.94F HX 102
ZIHUATANEJO    MOSUNNY   91  73  55 SW12      29.91S HX 100

YUCATAN PENINSULA

CITY           SKY/WX    TMP DP  RH WIND       PRES   REMARKS
CAMPECHE       MOSUNNY   91  72  52 E18       29.95F HX  98
CANCUN         MOSUNNY   86  73  66 E10       30.05S HX  93
CHETUMAL       MOSUNNY   86  73  66 E12       30.00S HX  93
CD. DEL CARMEN SUNNY     90  72  55 SE14      29.95R HX  96
COZUMEL        MOSUNNY   86  72  62 E16       30.04S HX  92
MERIDA         MOSUNNY   93  66  40 E10       30.00F HX  96
MINATITLAN     PTSUNNY   86  77  74 NE9       29.89F HX  97
TAPACHULA      PTSUNNY   90  77  66 CALM      29.93F HX 102
TUX. GUTIERREZ MOSUNNY   84  68  58 N3        29.99F
VILLAHERMOSA   MOSUNNY   90  73  58 SW5       29.96F HX  98

CENTRAL AMERICA

CITY           SKY/WX    TMP DP  RH WIND       PRES   REMARKS
BELIZE CITY    PTSUNNY   88  77  70 E13       29.99F HX 100
MANAGUA        PTSUNNY   91  68  46 E12       29.89S HX  95

CARIBBEAN

CITY           SKY/WX    TMP DP  RH WIND       PRES   REMARKS
ARUBA          MOSUNNY   90  75  62 E21G33    29.86F HX 100
CURACAO        MOSUNNY   88  72  58 E15       29.92S HX  94
KINGSTON       MOSUNNY   86  72  62 S10       29.94F HX  92
NASSAU         MOSUNNY   82  68  61 E13       30.11F
SAN JUAN       MOSUNNY   84  72  65 NE12      29.97F
SANTO DOMINGO  MOSUNNY   86  72  62 SW7       29.94S HX  92
ST. CROIX      MOSUNNY   82  72  69 VRB5      29.97
ST. KITTS      MOSUNNY   82  72  69 SE6       29.94F
ST. MAARTEN    MOSUNNY   84  70  61 W5        29.94F
ST. THOMAS     CLOUDY    81  72  74 E6        29.96

$$



USA.gov is the U.S. government's official web portal to all federal, state and local government web resources and services.